ONEWEB-0255 (48973 NORAD) Tracking and Keplerian Element Data

This shows tracking and keplerian element data for the satellite.

Feedback or suggestion? Click here.




ElementValue
Catalog48973
NameONEWEB-0255
Epoch Orbit567
Epoch Day211.25001157
Epoch Year2021
RAAN227.4133
Inclination87.4544
Eccentricity0.0006302
Argument of Perigee156.9642
Mean Anonmoly293.5378
Mean Motion14.99105893
Decay Rate-0.00038067
L11 48973U 21060G 21211.25001157 -.00038067 00000-0 -31570-2 0 9992
L22 48973 87.4544 227.4133 0006302 156.9642 293.5378 14.99105893 5675

Live tracking and technical data element details for ONEWEB-0255 (NORAD 48973). ONEWEB-0255 can be tracked NOW for your location showing map with azimuth and elevation plus other details from your city location.

Track the satellite on the map from your city or location and see movement details for azimuth, elevation, latitude, longitude, range, height, and movement on the map or in text.







IsCatalogInMostPopularTable: catalog: 48973, numindb: 3
Update: records affected: 1



GetName: 48973 ONEWEB-0255

Hit Count: updated at: Sat, 31 Jul 2021 16:24:45 GMT